Location: Chervonnoye
(48.6000°N, 34.4000°E)
Time: 02:46:01
(UTC+00:00)

BEESAT 3 - Pass Details

Date: 11 December 2021
Orbit: 472 x 512 km, 64.9° (Epoch: 24 January)

Event Time Altitude Azimuth Distance (km) Brightness Sun altitude
Rises 14:18:46 0° 180° (S) 2,542 ? -5.3°
Reaches altitude 10° 14:21:16 10° 164° (SSE) 1,676 ? -5.7°
Maximum altitude 14:24:04 20° 115° (ESE) 1,183 ? -6.1°
Drops below altitude 10° 14:26:55 10° 66° (ENE) 1,706 ? -6.5°
Enters shadow 14:27:19 - 63° (ENE) 1,836 ? -6.6°
